RH
28 29 26 21 19 18 17 17 17 16 15 15 15 15 14 13 13 12 12 12 12 13 14 15 15 13 24 35 33 32 32 33 36 38 41 40 39 44 48 50 50 50 49 48 50 55 61 66 70 71 69 68 70 71 69 68 72 75 75 71 67 69 69 67 66 61 54 46 43 44 45 47 51 56 60 64 65 62 57 54 54 56 54 53 53 51
32 32 28 22 20 17 16 18 17 16 15 15 16 15 14 13 12 11 11 11 12 14 13 14 15 14 24 35 35 34 35 36 37 40 44 43 44 47 49 51 51 52 54 54 58 61 60 64 72 77 74 72 73 72 69 69 73 75 74 70 69 73 74 74 73 65 57 50 46 48 50 53 58 63 66 66 63 59 56 54 55 55 54 54 53 47
36 33 28 24 21 18 17 17 17 17 16 17 16 16 16 14 12 12 11 11 12 13 13 15 15 15 24 34 35 34 36 37 38 39 41 43 45 46 47 49 49 53 56 56 59 62 61 64 73 78 78 78 76 72 71 73 74 74 71 69 71 75 77 77 75 69 63 58 54 55 58 61 65 67 68 65 61 59 57 55 56 57 58 56 51 42
38 33 28 27 24 20 18 17 17 17 17 18 18 17 17 15 14 13 12 13 13 14 14 16 16 18 29 35 34 36 37 37 38 40 40 40 41 43 44 46 47 50 53 54 57 60 63 68 73 76 79 80 77 72 71 73 72 70 70 70 71 75 78 77 74 71 68 64 62 64 66 68 69 68 67 65 63 62 58 55 57 62 61 54 46 39
36 32 28 28 26 23 20 18 17 18 18 18 17 17 16 15 14 13 14 14 15 15 14 17 18 21 32 36 36 39 40 39 40 41 42 41 42 44 46 49 50 51 51 53 57 59 62 69 71 75 78 78 75 69 68 70 71 69 69 71 72 74 76 74 73 71 70 68 67 70 71 72 72 69 67 66 65 64 61 60 63 63 58 51 43 36
34 31 28 27 27 25 22 19 17 17 18 18 17 17 16 16 14 14 16 16 17 16 14 18 20 21 30 35 37 40 41 42 42 42 42 42 42 43 47 51 52 52 52 54 58 58 60 66 70 72 74 75 73 68 65 68 70 70 70 72 72 72 72 72 72 71 71 73 72 73 72 71 71 69 69 69 66 63 63 64 63 59 54 47 38 31
32 30 27 27 27 26 24 20 16 16 18 17 16 16 16 16 15 15 17 18 19 18 17 18 20 27 36 37 38 42 43 43 43 43 43 42 43 42 44 48 50 52 55 57 59 60 61 65 69 70 70 71 71 66 63 67 71 70 68 69 69 69 70 70 70 70 73 74 74 74 72 70 70 69 71 72 66 64 65 64 63 59 50 40 32 27
31 30 28 27 27 27 25 21 17 16 17 16 15 16 16 16 15 16 17 18 19 19 20 19 21 36 48 44 41 44 47 48 46 44 43 43 44 44 44 47 50 54 57 59 61 63 64 63 65 68 69 69 68 65 61 64 68 66 62 64 66 68 70 70 70 73 74 73 74 75 73 73 73 72 73 71 66 67 68 67 67 58 42 32 28 26
31 32 29 26 27 27 25 21 17 16 16 15 15 16 17 17 17 18 18 18 20 21 22 22 23 35 50 53 51 52 52 52 49 44 43 44 44 46 48 50 52 55 58 59 61 65 65 64 64 65 67 68 68 65 60 61 64 61 61 66 68 70 73 74 74 75 74 72 75 76 74 75 77 76 72 68 66 71 72 70 64 51 37 31 28 25
32 30 29 27 26 25 23 20 18 17 16 14 15 16 16 17 19 20 20 20 22 25 26 25 25 36 55 63 60 60 58 52 48 45 44 46 47 48 49 50 52 54 57 59 63 68 70 71 69 66 67 70 69 65 61 62 63 62 65 69 72 73 75 75 76 75 74 74 75 76 75 74 76 76 72 69 71 73 72 67 57 45 37 32 29 27
31 29 30 29 25 23 22 21 19 18 16 15 16 16 16 18 20 22 24 23 26 32 32 26 25 35 56 67 60 54 50 44 44 47 45 46 49 50 49 50 52 52 55 60 65 69 72 75 75 70 70 71 69 66 64 65 65 65 67 70 72 74 75 75 75 76 76 76 76 76 73 72 74 74 72 71 71 70 67 62 52 43 37 33 30 30
32 32 31 28 25 23 22 21 20 18 17 17 16 16 18 21 22 23 25 27 29 35 34 27 24 28 42 58 57 45 39 37 40 43 45 46 50 53 51 51 53 54 56 60 63 66 70 75 77 73 71 69 67 67 67 66 67 68 69 69 71 73 75 75 75 76 75 75 76 74 71 71 71 72 73 71 69 66 62 58 51 43 37 32 31 30
34 33 31 29 26 23 23 23 22 20 19 18 17 17 20 24 25 24 28 34 35 33 30 27 26 26 29 39 45 40 36 34 35 37 42 45 48 51 50 50 53 57 59 61 64 68 71 73 74 72 69 67 66 66 66 66 66 67 68 69 70 72 75 75 75 74 71 70 74 73 72 72 71 72 71 68 66 63 59 56 50 43 35 31 31 30
37 35 32 30 27 23 23 23 23 22 20 19 18 18 21 25 27 28 31 36 35 30 29 27 26 27 26 27 33 36 33 31 33 38 40 43 46 48 47 48 51 56 60 63 68 72 72 70 71 70 67 65 64 63 62 63 63 65 67 68 69 72 75 75 73 70 68 70 72 73 74 74 73 72 67 65 64 60 56 54 49 42 35 32 31 30
40 38 33 28 26 24 23 23 23 23 21 19 18 19 21 23 27 32 35 36 34 30 29 26 25 28 27 26 30 31 31 32 34 40 45 48 50 49 48 49 51 56 60 65 70 73 72 70 71 70 65 63 65 62 60 60 61 63 65 66 68 71 73 72 69 69 72 73 73 74 75 75 72 68 64 62 60 56 54 53 49 43 37 34 32 32
37 35 29 27 27 24 23 23 22 23 22 19 18 19 20 22 29 33 34 38 37 30 29 29 29 31 29 30 34 33 34 37 36 41 49 51 51 51 51 52 54 58 60 63 68 70 72 72 72 70 64 63 68 66 61 60 60 62 64 66 70 71 70 68 68 72 76 75 75 76 75 74 71 67 61 57 54 53 53 51 49 43 36 36 35 35
37 35 29 27 28 25 24 24 22 23 24 22 20 19 18 22 31 33 31 36 37 32 32 30 28 32 31 31 37 38 40 43 39 43 50 50 51 53 53 56 57 59 60 61 64 67 70 73 72 69 65 64 67 66 63 63 63 64 66 69 70 69 65 65 69 74 76 76 76 76 74 73 71 66 59 53 50 51 51 50 48 41 37 38 38 37
38 38 32 27 27 26 25 25 22 23 24 23 21 19 19 21 28 36 34 34 38 39 38 32 27 31 30 31 38 42 44 47 45 47 51 50 50 52 55 59 59 60 62 61 63 67 69 70 69 69 68 65 64 62 63 65 65 65 67 69 67 64 64 67 71 73 76 78 77 74 75 74 69 62 55 51 50 50 50 49 46 41 39 41 39 38
39 38 33 27 27 27 27 28 26 24 22 22 21 19 20 22 26 33 33 32 37 38 36 34 31 31 32 36 42 42 44 50 51 51 51 48 49 50 55 60 59 60 62 61 63 66 67 67 67 68 69 65 61 61 62 63 64 65 67 68 66 66 69 70 70 71 73 76 76 74 75 72 65 57 52 51 51 50 50 49 46 43 42 41 39 39
41 43 36 28 28 29 29 29 27 26 23 22 22 20 21 25 26 27 28 29 33 36 39 38 34 32 34 37 39 41 45 50 52 52 49 44 45 48 52 56 57 58 60 61 63 66 66 65 65 66 67 64 62 61 61 60 62 65 67 66 67 70 72 69 67 68 69 72 75 75 73 68 60 53 51 51 51 50 49 48 45 44 43 41 40 42
42 46 41 32 30 31 30 27 26 27 25 22 22 22 21 22 22 25 28 27 27 37 45 44 40 37 35 35 35 39 45 48 50 50 46 43 43 46 49 50 51 56 60 61 62 65 65 64 65 68 68 66 65 62 60 60 62 66 67 66 69 72 71 68 67 68 67 67 70 70 66 60 54 51 51 50 49 50 49 45 44 44 43 42 43 45
43 47 45 37 32 30 29 26 26 27 25 23 23 24 23 22 23 28 32 26 26 36 39 39 43 41 34 34 35 36 41 45 46 45 43 43 43 45 47 46 49 56 59 60 63 66 66 66 67 68 68 67 64 61 60 60 62 65 66 67 70 71 70 69 69 69 68 67 66 64 60 55 51 51 51 50 50 50 47 44 44 44 44 45 46 47
46 49 47 39 32 30 29 28 27 26 24 23 22 23 25 25 25 32 38 32 26 30 31 30 35 35 33 35 35 34 37 40 40 39 40 42 43 42 44 45 51 58 60 61 63 65 63 61 62 63 65 65 63 60 60 61 62 64 66 69 70 70 70 69 68 67 68 66 64 62 59 54 52 52 52 51 50 48 46 45 45 45 46 48 48 47
50 52 46 40 34 31 30 27 27 27 24 22 22 22 24 26 27 33 44 40 29 28 30 27 30 34 35 35 33 32 34 37 38 40 43 46 44 43 45 47 52 59 62 60 59 58 55 55 58 61 63 64 64 63 61 61 63 63 66 71 71 71 71 68 65 64 63 63 62 60 58 57 56 54 53 52 50 47 46 46 45 46 50 52 50 48
52 52 46 44 41 37 35 32 30 27 24 24 24 22 22 26 28 31 39 39 32 31 32 29 34 40 38 34 33 32 35 40 44 47 51 51 47 46 48 48 50 55 59 58 56 55 52 52 58 62 63 63 64 66 64 63 64 63 67 73 73 71 70 66 63 62 61 60 60 60 60 61 59 55 53 52 49 47 47 46 45 49 54 54 52 49
55 54 51 48 45 42 39 34 31 28 24 24 24 22 22 23 26 31 35 35 35 36 32 31 39 44 40 37 37 37 40 46 50 53 54 52 49 49 49 49 51 53 55 55 55 54 52 51 56 61 64 65 66 66 66 66 66 65 68 74 75 72 68 64 62 62 60 59 60 61 62 62 60 55 53 51 49 48 47 47 48 53 56 56 53 51
58 55 52 48 43 41 37 30 29 28 26 27 26 24 23 22 25 33 35 34 36 38 36 39 45 45 42 40 40 43 48 51 53 56 54 51 51 52 52 52 53 54 55 55 54 54 53 52 53 57 62 65 66 67 67 69 70 69 70 74 75 71 65 63 64 64 63 61 61 61 61 60 59 57 53 51 50 49 49 49 52 56 58 58 56 55
58 52 50 47 43 42 38 31 29 29 29 28 28 27 24 23 26 30 34 36 37 37 40 49 51 46 45 48 46 48 53 54 55 56 54 52 52 54 56 55 53 54 55 55 57 57 58 57 56 57 60 62 64 66 67 71 73 72 74 76 73 67 64 64 65 66 66 65 64 61 59 59 60 58 55 53 53 52 51 53 56 60 62 61 60 58
61 57 52 48 46 45 40 34 30 30 30 28 28 29 27 26 25 26 32 38 36 35 41 50 51 45 48 54 54 53 54 54 55 55 55 54 54 55 57 57 56 55 54 54 58 63 66 65 61 59 60 60 63 67 68 71 73 72 75 75 70 66 64 64 64 65 66 66 64 61 59 60 59 57 55 55 54 54 55 58 62 64 65 64 63 62
61 61 57 52 51 48 44 40 33 29 30 28 27 29 29 29 30 28 31 36 35 35 42 49 49 43 44 53 59 58 57 57 58 59 58 56 55 56 57 56 57 57 57 59 63 69 74 72 65 61 60 62 65 68 70 72 71 70 72 72 67 65 65 64 62 62 62 63 63 62 61 61 59 56 57 58 57 58 62 65 66 66 67 67 65 61
61 60 58 55 54 48 44 44 36 30 31 30 28 28 28 30 32 28 28 31 33 34 40 47 48 43 45 55 60 60 60 60 59 58 58 57 58 57 56 56 56 57 61 64 68 73 79 79 74 69 67 67 69 71 71 72 70 68 70 71 67 66 67 65 62 61 61 62 64 63 64 64 61 61 62 62 63 66 69 69 68 68 69 67 61 55
60 60 58 59 55 47 45 46 39 33 32 31 28 27 27 29 30 29 28 29 31 36 41 43 42 45 53 57 57 57 58 56 53 53 56 57 56 55 55 56 56 56 59 62 65 70 74 75 73 70 67 68 70 72 74 72 70 70 72 71 69 69 69 66 65 64 63 65 65 66 67 66 65 66 68 68 70 72 72 71 71 70 67 62 56 53
62 62 57 56 53 47 49 50 41 36 35 34 34 32 29 30 31 30 30 30 33 38 40 37 35 45 55 55 53 56 55 52 51 51 51 52 52 53 54 56 56 55 57 62 64 64 65 67 68 65 64 68 70 72 74 73 70 72 75 73 71 72 71 69 69 68 67 67 68 70 70 68 68 69 71 72 75 75 73 73 73 69 64 60 57 53
62 61 55 56 55 49 51 51 43 40 41 42 44 42 36 33 32 30 30 32 34 38 39 38 39 46 52 53 53 55 53 51 50 47 45 45 48 51 54 57 58 58 59 62 62 62 62 65 66 65 66 70 72 73 76 75 72 73 76 73 73 74 73 72 73 71 69 70 70 72 72 70 70 72 72 74 78 79 77 75 72 69 65 61 56 51
59 59 55 58 58 53 55 54 47 46 49 49 49 47 43 40 36 34 34 34 36 39 41 43 45 46 48 50 51 52 51 50 48 46 45 46 48 52 55 57 57 57 57 58 57 58 59 62 64 66 69 72 74 77 78 74 70 71 73 73 73 76 76 77 76 73 70 71 72 73 72 71 73 75 73 74 77 76 75 72 71 68 63 58 54 49
59 59 56 57 57 55 57 57 54 53 54 53 51 48 45 42 38 35 34 34 38 42 40 41 45 45 46 49 50 49 48 47 47 47 49 49 49 50 51 51 51 52 53 55 56 57 60 61 62 66 72 75 75 74 73 70 67 68 72 73 75 77 79 79 77 73 70 72 73 73 71 72 74 74 72 72 73 72 72 72 70 66 60 56 52 45
59 58 55 53 56 58 58 57 57 54 51 52 51 47 43 39 38 38 36 37 42 45 42 40 42 44 49 52 51 48 47 48 50 50 48 47 47 46 44 45 47 47 50 55 59 60 62 65 66 68 73 76 73 68 66 65 64 67 73 75 75 76 78 77 74 69 68 72 74 73 73 73 73 70 67 68 70 71 71 70 67 63 58 54 49 41
57 56 55 53 54 58 60 59 57 53 52 54 53 50 45 41 41 42 39 37 42 45 42 40 40 44 51 55 51 48 48 49 50 49 44 44 46 46 45 47 47 46 48 53 59 62 64 67 68 69 73 75 72 69 67 66 67 72 77 76 73 74 74 73 71 68 70 76 78 75 74 73 71 68 68 68 70 70 69 67 65 61 56 52 45 39
56 58 61 57 53 56 61 61 57 54 55 56 55 53 47 42 41 38 33 36 44 45 43 43 46 48 51 53 52 49 48 50 51 47 42 42 45 45 46 48 49 48 46 48 54 60 63 66 67 68 71 74 74 74 72 71 74 81 82 77 74 74 72 71 70 69 72 79 80 75 73 73 72 71 71 70 67 67 67 66 64 60 55 49 42 37
54 57 60 56 52 56 61 61 57 55 55 55 56 54 48 43 39 33 32 39 44 45 45 46 50 51 48 48 49 46 44 45 45 43 42 42 43 44 45 46 47 47 46 47 50 55 60 65 66 66 68 71 73 74 75 74 75 78 77 74 73 74 75 75 74 72 74 79 79 76 75 75 75 75 72 68 64 65 66 65 62 58 53 47 40 37
52 54 58 58 55 57 60 59 57 58 58 57 57 53 45 42 40 37 40 44 42 43 46 45 47 49 46 43 44 42 39 37 35 37 42 43 44 45 45 43 44 45 46 46 48 53 59 63 66 66 67 67 65 66 69 70 70 71 70 69 69 71 77 79 77 76 78 80 80 80 79 78 78 76 70 64 63 64 65 64 61 57 52 45 39 37
53 52 55 57 55 56 61 63 63 64 62 58 56 53 47 46 48 47 48 49 45 45 45 42 42 44 43 41 41 40 38 35 34 38 43 44 44 46 47 45 45 46 46 46 48 53 57 62 65 65 64 64 62 61 62 65 67 68 68 67 65 68 74 77 75 74 76 78 80 82 81 80 80 74 66 62 63 64 64 63 61 56 49 43 39 37
56 54 54 56 55 54 60 63 63 66 67 61 57 56 54 54 55 52 51 52 52 50 47 43 43 42 42 42 41 39 38 40 41 43 44 44 44 46 48 48 46 45 46 47 47 50 53 57 61 61 61 66 70 66 62 63 66 67 66 65 64 66 69 70 70 74 77 78 80 81 80 79 76 68 62 62 64 65 64 64 61 55 47 43 40 39
55 54 54 55 55 54 57 59 61 66 69 64 59 60 59 57 55 54 54 55 55 53 50 48 47 46 46 46 45 44 45 47 48 48 47 47 46 46 49 51 48 45 45 46 48 50 51 53 56 57 60 66 68 66 63 63 64 64 64 65 66 68 69 68 70 77 81 81 81 82 80 76 69 63 61 63 65 65 64 63 61 54 47 44 41 40
58 57 57 60 60 59 59 61 63 65 66 64 61 61 62 60 58 59 58 56 55 55 53 52 51 50 51 53 53 53 52 52 52 52 50 49 48 48 50 52 50 47 46 46 48 50 51 52 55 57 60 63 65 67 69 69 65 64 66 69 70 72 74 74 75 79 82 83 83 83 79 71 64 61 61 63 65 65 64 64 61 53 47 44 41 40
63 60 62 66 67 63 62 64 65 65 65 64 60 60 64 66 65 64 60 56 55 55 53 53 53 54 56 58 58 55 54 54 56 56 54 52 51 51 52 53 52 49 47 46 47 49 50 52 56 61 64 66 68 69 71 71 68 67 70 73 73 75 78 79 81 83 84 84 84 80 73 66 62 61 62 64 65 64 64 64 59 51 47 44 41 41
66 64 67 70 69 67 68 69 68 67 68 65 61 62 68 69 66 64 61 58 55 54 52 52 54 56 57 57 56 55 56 56 57 58 56 56 56 56 54 53 52 51 49 48 47 48 48 49 55 62 64 65 67 67 68 69 67 65 69 72 74 76 78 82 86 88 85 82 79 73 67 63 61 62 63 65 65 65 65 62 55 49 47 45 42 43
66 67 70 70 69 70 71 71 68 68 68 64 59 62 68 67 61 59 60 58 55 54 53 53 55 56 57 57 56 57 58 58 57 57 57 59 61 60 57 54 52 50 49 48 48 49 48 48 52 57 56 57 63 66 66 66 64 66 71 73 73 75 78 82 85 85 82 79 74 68 64 62 62 64 66 66 66 66 64 58 52 51 50 45 42 44
65 68 69 68 68 69 69 68 68 69 68 63 59 61 65 64 59 57 57 57 56 54 53 53 55 56 57 59 58 57 58 59 58 57 57 58 61 62 61 58 54 51 50 50 49 48 47 47 48 49 49 53 60 64 64 62 62 65 70 71 73 78 82 84 82 80 78 77 72 66 64 64 65 67 67 67 67 65 61 56 55 57 54 46 42 43
68 70 71 68 68 69 67 65 65 67 66 62 62 65 67 64 60 56 54 55 56 55 52 51 51 52 54 57 56 55 57 60 61 59 58 57 58 61 62 60 56 53 52 51 50 49 49 51 52 49 48 53 57 59 60 60 61 63 64 65 69 76 81 82 78 75 75 74 69 65 64 66 68 69 68 68 67 64 61 61 63 62 56 46 43 42
71 72 73 71 70 68 65 62 63 65 64 60 60 63 65 63 59 55 52 52 55 56 54 51 49 50 53 54 55 54 55 57 59 59 58 57 58 59 60 58 57 56 55 54 53 51 52 54 53 49 49 51 52 54 58 60 60 62 62 62 65 69 74 75 74 72 72 70 66 65 66 68 70 69 69 70 67 62 62 65 64 60 53 49 47 46